Brunswick, GA

3:12 PM EDT on April 20, 2018 (GMT -0400)
Glynco Jetport

Weather History for KBQK - February, 2014

Change the Weather History Date:

Monday, February 24, 2014

  Actual Average Record
Temperature  
Mean Temperature 63 °F -  
Max Temperature 75 °F 67 °F 86 °F (2012)
Min Temperature 51 °F 45 °F 26 °F (1989)
Degree Days  
Heating Degree Days 2    
Growing Degree Days 13 (Base 50)    
Moisture  
Dew Point 56 °F    
Average Humidity 82    
Maximum Humidity 100    
Minimum Humidity 38    
Precipitation  
Precipitation 0.00 in - - ()
Sea Level Pressure  
Sea Level Pressure 30.04 in    
Wind  
Wind Speed 4 mph (NNW)    
Max Wind Speed 12 mph    
Max Gust Speed -    
Visibility 8 miles    
Events      
Averages and records for this station are not official NWS values.
T = Trace of Precipitation, MM = Missing Value Source: NWS Daily Summary

Daily Weather History Graph

Daily Weather History Graph

Search for Another Location

Airport or City:

Astronomy

Feb. 24, 2014 Rise Set
Actual Time 6:58 AM EST 6:20 PM EST
Civil Twilight 6:33 AM EST 6:44 PM EST
Nautical Twilight 6:05 AM EST 7:13 PM EST
Astronomical Twilight 5:37 AM EST 7:41 PM EST
Moon 2:43 AM EST (2/24) 1:31 PM EST (2/24)
Length of Visible Light 12h 11m
Length of Day
11h 22m
Waning Crescent, 28% of the Moon is Illuminated
Feb 24
Waning Crescent
Mar 1
New
Mar 8
First Quarter
Mar 16
Full
Mar 23
Last Quarter

Hourly Weather History & Observations

Time (EST) Temp. Dew Point Humidity Pressure Visibility Wind Dir Wind Speed Gust Speed Precip Events Conditions
12:15 AM 59.0 °F 59.0 °F 100% 30.00 in 0.8 mi Calm Calm - N/A   Unknown
12:35 AM 59.0 °F 59.0 °F 100% 30.00 in 1.5 mi Calm Calm - N/A   Scattered Clouds
12:55 AM 59.0 °F 59.0 °F 100% 30.00 in 7.0 mi Calm Calm - N/A   Scattered Clouds
1:15 AM 59.0 °F 59.0 °F 100% 30.00 in 5.0 mi Calm Calm - N/A   Mostly Cloudy
1:35 AM 59.0 °F 59.0 °F 100% 30.00 in 4.0 mi WNW 5.8 mph - N/A   Overcast
1:55 AM 59.0 °F 59.0 °F 100% 30.00 in 1.8 mi WNW 10.4 mph - N/A   Overcast
2:15 AM 59.0 °F 59.0 °F 100% 30.00 in 2.5 mi WNW 5.8 mph - N/A   Overcast
2:35 AM 60.8 °F 59.0 °F 94% 29.99 in 5.0 mi WNW 5.8 mph - N/A   Overcast
2:55 AM 60.8 °F 60.8 °F 100% 29.99 in 5.0 mi WNW 5.8 mph - N/A   Overcast
3:15 AM 60.8 °F 60.8 °F 100% 29.98 in 7.0 mi WNW 8.1 mph - N/A   Overcast
3:35 AM 60.8 °F 60.8 °F 100% 29.98 in 10.0 mi WNW 5.8 mph - N/A   Overcast
3:55 AM 60.8 °F 60.8 °F 100% 29.98 in 10.0 mi West 3.5 mph - N/A   Scattered Clouds
4:15 AM 60.8 °F 59.0 °F 94% 29.98 in 10.0 mi WNW 4.6 mph - N/A   Scattered Clouds
4:35 AM 60.8 °F 60.8 °F 100% 29.98 in 10.0 mi WNW 5.8 mph - N/A   Mostly Cloudy
4:55 AM 60.8 °F 60.8 °F 100% 29.98 in 10.0 mi West 5.8 mph - N/A   Overcast
5:15 AM 60.8 °F 60.8 °F 100% 29.98 in 10.0 mi West 3.5 mph - N/A   Mostly Cloudy
5:35 AM 60.8 °F 60.8 °F 100% 29.99 in 10.0 mi Calm Calm - N/A   Overcast
5:55 AM 60.8 °F 60.8 °F 100% 30.00 in 10.0 mi Calm Calm - N/A   Overcast
6:15 AM 60.8 °F 60.8 °F 100% 30.01 in 10.0 mi Calm Calm - N/A   Overcast
6:35 AM 60.8 °F 60.8 °F 100% 30.02 in 10.0 mi Calm Calm - N/A   Overcast
6:55 AM 60.8 °F 60.8 °F 100% 30.02 in 10.0 mi Calm Calm - N/A   Overcast
7:15 AM 60.8 °F 60.8 °F 100% 30.03 in 10.0 mi WNW 3.5 mph - N/A   Overcast
7:35 AM 60.8 °F 60.8 °F 100% 30.03 in 10.0 mi WNW 3.5 mph - N/A   Overcast
7:55 AM 62.6 °F 60.8 °F 94% 30.04 in 10.0 mi NW 3.5 mph - N/A   Overcast
8:15 AM 62.6 °F 60.8 °F 94% 30.04 in 10.0 mi Calm Calm - N/A   Mostly Cloudy
8:35 AM 64.4 °F 60.8 °F 88% 30.04 in 10.0 mi NNW 4.6 mph - N/A   Scattered Clouds
8:55 AM 64.4 °F 60.8 °F 88% 30.05 in 10.0 mi NW 6.9 mph - N/A   Clear
9:15 AM 66.2 °F 60.8 °F 83% 30.06 in 10.0 mi NNW 5.8 mph - N/A   Scattered Clouds
9:35 AM 66.2 °F 60.8 °F 83% 30.06 in 10.0 mi NW 8.1 mph - N/A   Mostly Cloudy
9:55 AM 68.0 °F 59.0 °F 73% 30.07 in 10.0 mi NNW 8.1 mph - N/A   Mostly Cloudy
10:15 AM 68.0 °F 59.0 °F 73% 30.07 in 10.0 mi NNW 6.9 mph - N/A   Scattered Clouds
10:35 AM 69.8 °F 57.2 °F 64% 30.07 in 10.0 mi NNW 10.4 mph - N/A   Clear
10:55 AM 69.8 °F 55.4 °F 60% 30.08 in 10.0 mi NW 9.2 mph - N/A   Clear
11:15 AM 69.8 °F 55.4 °F 60% 30.08 in 10.0 mi WNW 6.9 mph - N/A   Clear
11:35 AM 71.6 °F 55.4 °F 57% 30.08 in 10.0 mi WNW 9.2 mph - N/A   Clear
11:55 AM 71.6 °F 53.6 °F 53% 30.07 in 10.0 mi NNW 5.8 mph - N/A   Clear
12:15 PM 73.4 °F 51.8 °F 47% 30.06 in 10.0 mi NW 6.9 mph - N/A   Clear
12:35 PM 73.4 °F 51.8 °F 47% 30.06 in 10.0 mi NNE 6.9 mph - N/A   Clear
12:55 PM 73.4 °F 50.0 °F 44% 30.05 in 10.0 mi North 3.5 mph - N/A   Clear
1:15 PM 73.4 °F 50.0 °F 44% 30.04 in 10.0 mi NNE 3.5 mph - N/A   Clear
1:35 PM 73.4 °F 48.2 °F 41% 30.03 in 10.0 mi ENE 4.6 mph - N/A   Clear
1:55 PM 73.4 °F 48.2 °F 41% 30.03 in 10.0 mi NE 3.5 mph - N/A   Clear
2:15 PM 73.4 °F 48.2 °F 41% 30.02 in 10.0 mi NNW 3.5 mph - N/A   Scattered Clouds
2:35 PM 75.2 °F 48.2 °F 38% 30.01 in 10.0 mi NE 4.6 mph - N/A   Mostly Cloudy
2:55 PM 73.4 °F 55.4 °F 53% 30.01 in 10.0 mi ESE 8.1 mph - N/A   Overcast
3:15 PM 71.6 °F 55.4 °F 57% 30.01 in 10.0 mi ESE 9.2 mph - N/A   Scattered Clouds
3:35 PM 71.6 °F 55.4 °F 57% 30.01 in 10.0 mi SE 9.2 mph - N/A   Scattered Clouds
3:55 PM 69.8 °F 55.4 °F 60% 30.02 in 10.0 mi SE 8.1 mph - N/A   Scattered Clouds
4:15 PM 68.0 °F 55.4 °F 64% 30.03 in 10.0 mi SE 10.4 mph - N/A   Clear
4:35 PM 68.0 °F 55.4 °F 64% 30.04 in 10.0 mi East 11.5 mph - N/A   Clear
4:55 PM 64.4 °F 55.4 °F 73% 30.04 in 10.0 mi East 10.4 mph - N/A   Clear
5:15 PM 64.4 °F 55.4 °F 73% 30.05 in 10.0 mi ESE 6.9 mph - N/A   Clear
5:35 PM 62.6 °F 55.4 °F 77% 30.05 in 10.0 mi ESE 6.9 mph - N/A   Clear
5:55 PM 62.6 °F 55.4 °F 77% 30.06 in 10.0 mi ESE 6.9 mph - N/A   Clear
6:15 PM 60.8 °F 55.4 °F 82% 30.07 in 10.0 mi SE 5.8 mph - N/A   Clear
6:35 PM 60.8 °F 55.4 °F 82% 30.07 in 10.0 mi ESE 3.5 mph - N/A   Clear
6:55 PM 60.8 °F 55.4 °F 82% 30.08 in 10.0 mi Calm Calm - N/A   Clear
7:15 PM 59.0 °F 55.4 °F 88% 30.08 in 10.0 mi Calm Calm - N/A   Clear
7:35 PM 59.0 °F 55.4 °F 88% 30.09 in 10.0 mi Calm Calm - N/A   Clear
7:55 PM 59.0 °F 55.4 °F 88% 30.10 in 10.0 mi Calm Calm - N/A   Clear
8:15 PM 55.4 °F 53.6 °F 94% 30.10 in 10.0 mi Calm Calm - N/A   Clear
8:35 PM 53.6 °F 53.6 °F 100% 30.11 in 10.0 mi Calm Calm - N/A   Clear
8:55 PM 53.6 °F 53.6 °F 100% 30.11 in 10.0 mi Calm Calm - N/A   Clear
9:15 PM 53.6 °F 53.6 °F 100% 30.11 in 10.0 mi Calm Calm - N/A   Clear
9:35 PM 53.6 °F 51.8 °F 94% 30.11 in 5.0 mi Calm Calm - N/A   Clear
9:55 PM 53.6 °F 51.8 °F 94% 30.11 in 2.0 mi Calm Calm - N/A   Clear
10:15 PM 51.8 °F 51.8 °F 100% 30.11 in 1.8 mi Calm Calm - N/A   Unknown
10:35 PM 53.6 °F 51.8 °F 94% 30.11 in 1.2 mi Calm Calm - N/A   Unknown
10:55 PM 51.8 °F 51.8 °F 100% 30.10 in 0.8 mi Calm Calm - N/A   Unknown
11:15 PM 53.6 °F 51.8 °F 94% 30.09 in 5.0 mi Calm Calm - N/A   Clear
11:35 PM 51.8 °F 51.8 °F 100% 30.09 in 5.0 mi Calm Calm - N/A   Clear
11:55 PM 53.6 °F 53.6 °F 100% 30.09 in 7.0 mi Calm Calm - N/A   Clear